Location: Cutcane
(34.9365°N, 84.2371°W)
Time: 11:53:58
(UTC+00:00)

Tiangong - Visible Passes

Search period start: 12 August 2022 00:00
Search period end: 22 August 2022 00:00
Orbit: 379 x 386 km, 41.5° (Epoch: 12 August)

Date Brightness Start Highest point End Pass type
(mag) Time Alt. Az. Time Alt. Az. Time Alt. Az.
12 Aug 0.3 09:07:32 15° SE 09:07:32 15° SE 09:08:12 10° SE visible
13 Aug 0.4 01:35:10 10° S 01:35:12 10° S 01:35:12 10° S visible
14 Aug -0.3 02:10:08 10° SW 02:11:27 22° SW 02:11:27 22° SW visible
15 Aug -1.1 01:10:15 10° SSW 01:12:58 27° SE 01:15:04 14° E visible
15 Aug 0.7 02:46:37 10° W 02:47:17 15° W 02:47:17 15° W visible
16 Aug -2.2 01:46:07 10° WSW 01:49:15 81° NNW 01:50:32 32° ENE visible
17 Aug -0.5 02:22:53 10° W 02:25:39 33° NNW 02:25:39 33° NNW visible
18 Aug -1.2 01:22:13 10° W 01:25:15 48° NNW 01:28:18 10° ENE visible
18 Aug 1.2 02:59:50 10° WNW 03:00:31 14° NW 03:00:31 14° NW visible
19 Aug -0.2 01:59:07 10° WNW 02:01:50 26° N 02:03:02 20° NNE visible
20 Aug -0.6 00:58:19 10° W 01:01:13 33° NNW 01:04:06 10° NE visible
20 Aug 0.4 02:35:53 10° NW 02:37:33 20° NNW 02:37:33 20° NNW visible
21 Aug -0.1 01:35:12 10° WNW 01:37:49 23° N 01:39:50 13° NE visible
